TIME,DELAY(SENSOR),PRES,OXYGEN,RAWTEMP,T(OPTODE),TCPHASE,FLUOR,BETA(BETA700),BETA(BETA412),BETA(BETA440),CDOM,C(CSC),ED(ED411.90),ED(ED443.80),ED(ED489.40),ED(ED554.70),LU(LU412.20),LU(LU443.80),LU(LU489.40),LU(LU555.00),COMP,TILTX,TILTY,CHECK
1354400898,5804,852.7700195312500000,159.3571014404297000,435.2435913085937500,9.5256443023681640,39.5984191894531250,52,107,55,54,61,13197,2146960768,2147514121,2147289664,2147508059,2147089865,2146932086,2147705069,2147120027,2362,-1,9,53445
1354404494,5807,963.4299926757812000,197.6251983642578000,502.5408020019531000,7.4506449699401855,38.0907707214355500,52,103,55,54,60,13191,2146962139,2147515419,2147292041,2147520091,2147090203,2146925211,2147717778,2147121042,3475,-1,8,39258
1354408094,5807,970.3900146484375000,206.6609954833984400,509.6412048339844000,7.2300701141357420,37.6631088256835940,52,99,54,53,60,13191,2146959817,2147517906,2147296429,2147521737,2147091492,2146925942,2147721508,2147120612,261,-1,8,30899
1354411694,5807,975.8699951171875000,207.7845001220703000,509.6744995117187500,7.2290358543396000,37.5964584350585940,52,98,55,53,62,13179,2146960128,2147516059,2147298742,2147524105,2147089792,2146921673,2147721737,2147121106,333,-1,9,33152
1354415294,5806,978.8800048828125000,208.4109039306640600,512.6962890625000000,7.1350569725036620,37.6129112243652340,52,100,54,53,60,13177,2146961490,2147517156,2147297993,2147521408,2147090541,2146926966,2147714148,2147122176,3518,-1,9,14330
1354418894,5808,983.2399902343750000,208.8778076171875000,512.8145751953125000,7.1313772201538090,37.5877685546875000,52,100,55,54,61,13173,2146960859,2147517101,2147295762,2147518061,2147092498,2146926454,2147714816,2147119890,56,-1,8,55275
1354422494,5808,984.0200195312500000,210.5516967773437500,513.2316284179688000,7.1184029579162600,37.4967308044433600,52,99,55,54,60,13178,2146964032,2147514358,2147295981,2147522779,2147091648,2146925019,2147723181,2147120621,46,-1,8,3164
1354426094,5804,981.0900268554688000,210.0169982910156200,514.6339111328125000,7.0747652053833010,37.5523796081543000,52,99,55,53,61,13174,2146961024,2147516105,2147295680,2147523035,2147089124,2146928475,2147719780,2147118848,3505,-1,8,44310
1354429694,5805,986.4199829101562000,210.2716979980468800,514.7620239257812000,7.0707778930664060,37.5398597717285160,51,100,55,53,60,13173,2146963666,2147515309,2147299117,2147521490,2147092132,2146925028,2147719268,2147121636,3449,-1,9,32935
1354433294,5807,982.6699829101562000,213.2093048095703000,516.4086303710938000,7.0195159912109375,37.3974800109863300,51,99,54,54,61,13170,2146960457,2147513910,2147296118,2147520137,2147093339,2146921042,2147724736,2147121782,813,-1,8,32066
1354436894,5806,987.0000000000000000,212.0827941894531200,516.6610717773438000,7.0116558074951170,37.4673385620117200,52,101,54,55,61,13169,2146963355,2147516233,2147295021,2147520164,2147092196,2146920292,2147718363,2147119698,3408,-1,9,20386
1354440494,5803,987.4699707031250000,211.4869995117187500,516.0501708984375000,7.0306749343872070,37.4919013977050800,53,98,54,54,60,13171,2146963821,2147516169,2147292781,2147521883,2147089024,2146926363,2147722541,2147120822,3127,-1,8,62528
1354444094,5805,988.9000244140625000,211.7017974853515600,515.6232299804688000,7.0439682006835940,37.4717597961425800,52,98,53,54,61,13166,2146961069,2147519131,2147297819,2147518226,2147090468,2146922075,2147719643,2147121371,3470,-1,8,40906
1354447694,5803,990.8200073242188000,210.8291015625000000,516.0401000976562000,7.0309910774230960,37.5299301147460940,52,98,54,54,60,13168,2146958445,2147518875,2147298880,2147521645,2147090413,2146917558,2147723337,2147118902,3233,-1,9,43699
1354451294,5809,990.8400268554688000,210.2122039794922000,516.1245727539062000,7.0283589363098145,37.5674705505371100,53,99,55,54,60,13170,2146960768,2147516077,2147296914,2147522285,2147090880,2146921380,2147717202,2147121252,3593,-1,8,16746
1354454894,5807,984.8599853515625000,211.2259063720703000,516.6533203125000000,7.0118961334228520,37.5174407958984400,54,104,53,54,61,13145,2146963949,2147515657,2147295533,2147519945,2147090569,2146922770,2147722011,2147122459,117,-1,8,23282
1354458494,5804,987.1199951171875000,212.7776031494140600,517.6184082031250000,6.9818420410156250,37.4438591003418000,52,99,55,54,62,13164,2146961837,2147514422,2147293476,2147517110,2147088265,2146922934,2147718656,2147121316,3124,-1,8,14450
1354462094,5805,988.5399780273438000,213.5045013427734400,517.5347290039062000,6.9844470024108890,37.3999900817871100,53,99,55,53,61,13164,2146963172,2147517010,2147294710,2147518134,2147090121,2146927405,2147722166,2147119222,3522,-1,8,32866
1354465694,5805,988.0999755859375000,212.8280029296875000,517.2415161132812000,6.9935817718505860,37.4349594116210940,53,98,54,53,60,13159,2146962651,2147516507,2147295405,2147518089,2147088283,2146927405,2147720438,2147122029,3319,-1,9,29367
1354469294,5805,986.0000000000000000,213.3125000000000000,517.8201904296875000,6.9755568504333500,37.4169311523437500,52,100,54,54,60,13161,2146961718,2147518619,2147295908,2147518948,2147089325,2146921069,2147721920,2147122048,422,-1,9,39069
1354472894,5807,988.2500000000000000,214.4329986572265600,517.9661254882812000,6.9710140228271480,37.3547706604003900,51,100,54,54,60,13156,2146960429,2147515675,2147297206,2147519844,2147089728,2146924562,2147722322,2147122843,571,-1,8,24536
1354476494,5803,990.8300170898438000,213.5404968261718800,517.3748168945312000,6.9894289970397950,37.3953018188476560,51,99,54,54,60,13155,2146959734,2147514779,2147295634,2147520466,2147090048,2146922532,2147723968,2147119890,3400,0,9,32278
1354480094,5806,990.5700073242188000,213.0686950683593800,517.3781738281250000,6.9893231391906740,37.4232597351074200,51,99,54,54,61,13156,2146956891,2147515922,2147294326,2147520896,2147092891,2146926500,2147713737,2147120365,3158,-1,8,49170
1354483694,5806,994.3200073242188000,213.1994018554687500,517.3524780273438000,6.9901242256164550,37.4145202636718750,52,100,54,53,61,13158,2146961499,2147517732,2147295414,2147519744,2147089590,2146926838,2147720384,2147121097,3239,-1,8,55213
1354487294,5809,997.2700195312500000,211.7678070068359400,515.5374755859375000,7.0466380119323730,37.4656105041503900,52,112,55,54,59,13155,2146961810,2147516726,2147295021,2147520630,2147088640,2146922358,2147722267,2147122706,3584,-1,9,14420
1354490894,5805,995.8400268554688000,210.7677001953125000,515.8500976562500000,7.0369048118591310,37.5303115844726560,51,102,55,54,62,13156,2146964635,2147514368,2147296475,2147520402,2147093641,2146923876,2147722532,2147119497,3440,-1,9,22224
1354494494,5809,991.3900146484375000,212.9486999511718800,517.5715942382812000,6.9832987785339355,37.4334907531738300,52,101,53,53,61,13153,2146961152,2147514212,2147296960,2147519442,2147091602,2146921810,2147719360,2147118939,78,0,8,55737
1354498094,5805,987.3699951171875000,212.3363952636718800,518.9044189453125000,6.9417848587036130,37.4927215576171900,52,101,54,53,60,13137,2146964397,2147519314,2147297654,2147524178,2147092827,2146918208,2147720740,2147121645,3502,-1,8,29477
1354501694,5803,989.0000000000000000,211.7247924804687500,519.5806884765625000,6.9207110404968260,37.5395698547363300,52,100,54,55,60,13137,2146959259,2147514953,2147296256,2147524013,2147090779,2146922779,2147720822,2147120064,3306,-1,9,26810
1354505294,5803,991.4699707031250000,212.6398925781250000,518.9561767578125000,6.9401679039001465,37.4761695861816400,52,97,55,54,61,13134,2146963821,2147518070,2147294427,2147518957,2147090852,2146921901,2147718592,2147120045,3522,-1,8,11938
1354508894,5803,992.7100219726562000,211.8876037597656200,518.9680786132812000,6.9397969245910645,37.5195617675781250,52,99,54,54,60,13130,2146962020,2147515282,2147291337,2147521170,2147088612,2146919963,2147720320,2147120960,3564,-1,8,59106
1354512494,5807,989.2700195312500000,212.9812011718750000,518.2813720703125000,6.9611902236938480,37.4443702697753900,52,100,54,54,60,13121,2146962093,2147518546,2147292544,2147516022,2147092169,2146924150,2147724964,2147120704,201,-1,8,5814
1354516094,5804,989.3300170898438000,214.8912048339843800,519.4514770507812000,6.9247388839721680,37.3548011779785160,52,100,54,54,60,13125,2146958756,2147520713,2147296713,2147520137,2147091264,2146922459,2147719524,2147122011,370,0,8,11234
1354519694,5807,994.3599853515625000,214.3079071044922000,518.7816772460938000,6.9456062316894530,37.3760795593261700,52,99,54,54,59,13123,2146959734,2147518665,2147292708,2147521371,2147089883,2146924644,2147722733,2147122816,581,-1,8,59850
1354523294,5806,993.0800170898438000,215.2736968994140600,519.1066284179688000,6.9354848861694340,37.3268203735351560,51,99,55,54,60,13124,2146960667,2147515273,2147297261,2147518061,2147088932,2146925878,2147721307,2147117677,2463,-1,8,33435
1354526894,5803,994.0900268554688000,214.7969055175781200,518.7092285156250000,6.9478659629821780,37.3463401794433600,52,100,54,53,61,13125,2146959424,2147514843,2147296000,2147521654,2147089243,2146923355,2147718592,2147119478,3097,-1,8,24218
1354530494,5803,993.5200195312500000,215.0012054443359400,518.8969726562500000,6.9420127868652340,37.3384590148925800,52,98,55,53,62,13118,2146963008,2147519561,2147295853,2147518537,2147087835,2146923949,2147722706,2147119771,3218,0,9,25903
1354534094,5803,994.3800048828125000,215.4837951660156200,519.4417724609375000,6.9250397682189940,37.3200607299804700,52,104,54,53,61,13117,2146960054,2147516653,2147295488,2147520512,2147091236,2146922477,2147715666,2147118802,3020,-1,8,5342
1354537694,5806,991.6099853515625000,214.0395050048828000,519.2901000976562000,6.9297671318054200,37.4008216857910160,51,100,54,54,61,13099,2146962486,2147517952,2147297289,2147522038,2147090112,2146924827,2147721060,2147120649,3296,-1,9,16278
1354541294,5804,994.5999755859375000,214.1898040771484400,519.2116699218750000,6.9322090148925780,37.3908195495605500,52,108,54,54,62,13099,2146961526,2147517641,2147294189,2147518262,2147091053,2146920932,2147723392,2147118619,3407,-1,8,4258
1354543856,5806,997.2899780273438000,214.2743988037109400,518.8593139648438000,6.9431900978088380,37.3801002502441400,52,98,54,53,61,13112,2146959561,2147513874,2147293229,2147517997,2147092580,2146924946,2147723958,2147119707,3258,-1,8,40618
